Weather in Varna

Bulgaria     43°12′30″N   27°54′30″E
temp.,
°C
wind,
m/s
gust,
m/s
humid.,
%
clouds,
%
prec.,
mm/h
press.,
hPa
HPBL,
m
16 april, fri
fri1600:00+5wnw4106924 0.0 1019255
03:00+7wnw7135898 0.0 1019639
06:00+4w715703 0.0 1018483
09:00+6w9146315 0.0 1019645
12:00+10w810490 0.0 10201056
15:00+12w79466 0.0 10191268
18:00+11w585459 0.0 10191117
21:00+7wsw226577 0.0 102116
17 april, sat
sat1700:00+6wnw2260100 0.0 102120
03:00+6w1162100 0.0 102114
06:00+6wnw0062100 0.0 102014
09:00+8s2368100 0.1 1021233
12:00+10ese446194 0.0 1020615
15:00+10ese456275 0.0 1019567
18:00+9ese477396 0.0 1018478
21:00+7ene358542 0.0 1018141
18 april, sun
sun1800:00+7ene238699 0.0 101782
03:00+7nne4680100 0.0 1016261
06:00+8ne588095 0.0 1015401
09:00+8ene5994100 0.1 1015472
12:00+9e4697100 0.1 1015456
15:00+9ene3496100 0.2 1015348
18:00+9ene2398100 0.1 1015252
21:00+9nne2297100 0.2 101689
19 april, mon
mon1900:00+8wnw1196100 0.0 101612
03:00+8n2495100 0.0 1015130
06:00+8ne3696100 0.0 1014304
09:00+9ne4692100 0.0 1013364
12:00+9ne5896100 3.1 1011471
15:00+9ne61098100 4.6 1009458
18:00+9ne5999100 2.3 1005459
21:00+9nnw4795100 4.8 1004349
20 april, tue
tue2000:00+8wsw5896100 0.1 1003467
03:00+8w81389100 1.3 1003898
06:00+7wnw101388100 0.2 1005943
09:00+8w91390100 0.9 10071021
12:00+9w71287100 0.8 1010701
15:00+13w8106797 0.9 10111049
18:00+13w5106827 0.1 10121056
21:00+9wsw3482100 0.1 101437